Home > Weather > Asuncion > Past weeks

Flag for Paraguay Past Weather in Asuncion, Paraguay — Yesterday and Last 2 Weeks

Now
55 °F

Low clouds.


Feels Like: 53 °F
Forecast: 55 / 59 °F
Wind: 10 mph from Southwest

Location: Asuncion / Aeropuerto

Current Time: Jun 26, 2016 at 8:29:21 PM

Latest Report: Jun 26, 2016 at 7:00 PM


Visibility: N/A

Pressure: 30.18 "Hg

Humidity: 94%

Dew Point: 54 °F

Location of AsuncionLocation

Past Weather in Asuncion — Graph

°F

Asuncion Temperature Yesterday

Maximum temperature yesterday: 82 °F (at 2:00 PM)
Minimum temperature yesterday: 68 °F (at 8:00 PM)
Average temperature yesterday: 73 °F

High & Low Weather Summary for the Past Weeks

 TemperatureHumidityPressure
High82 °F (Jun 25, 2:00 PM)100% (Jun 21, 2:00 AM)30.48 "Hg (Jun 21, 2:00 AM)
Low36 °F (Jun 12, 5:00 AM)26% (Jun 12, 3:00 PM)29.92 "Hg (Jun 25, 3:00 AM)
Average59 °F71%30.16 "Hg
* Reported Jun 11 7:00 PM — Jun 26 7:00 PM, Asuncion, Weather by CustomWeather, © 2016

Note: Actual official high and low records may vary slightly from our data, if they occured in-between our weather recording intervals... More about our weather records

Advertising

Asuncion Weather History for the Previous 24 Hours

Scroll right to see more
 ConditionsComfort  
Time TempWeatherWind HumidityBarometerVisibility
7:00 PM
Sun, Jun 26
55 °FLow clouds.10 mph94%30.18 "HgN/A
6:00 PM57 °FLow clouds.9 mph88%30.18 "HgN/A
4:00 PM57 °FLow clouds.7 mph88%30.15 "HgN/A
3:00 PM59 °FLow clouds.8 mph82%30.15 "HgN/A
2:00 PM59 °FLow clouds.7 mph82%30.15 "HgN/A
1:00 PM59 °FLow clouds.7 mph88%30.15 "HgN/A
12:00 PM59 °FLow clouds.7 mph88%30.15 "HgN/A
11:00 AM59 °FLow clouds.8 mph88%30.18 "HgN/A
10:00 AM59 °FLow clouds.8 mph88%30.18 "HgN/A
9:30 AM59 °FOvercast.8 mph88%30.18 "HgN/A
9:00 AM59 °FMostly cloudy.85 mph88%30.15 "HgN/A
8:30 AM59 °FLow clouds.3 mph94%30.12 "HgN/A
8:00 AM57 °FLow clouds.7 mph94%30.12 "HgN/A
7:30 AM59 °FLow clouds.7 mph94%30.12 "HgN/A
7:00 AM59 °FLow clouds.9 mph94%30.12 "HgN/A
6:00 AM59 °FMostly cloudy.8 mph94%30.07 "HgN/A
5:00 AM61 °FMostly cloudy.6 mph94%30.04 "HgN/A
4:00 AM63 °FMostly cloudy.7 mph94%30.04 "HgN/A
3:00 AM64 °FMostly cloudy.8 mph88%30.04 "HgN/A
2:00 AM64 °FMostly cloudy.7 mph94%30.01 "HgN/A
1:00 AM66 °FMostly cloudy.7 mph94%30.04 "HgN/A
12:00 AM68 °FMostly cloudy.6 mph88%30.01 "HgN/A
11:00 PM
Sat, Jun 25
68 °FPassing clouds.5 mph88%30.01 "HgN/A
10:00 PM70 °FPassing clouds.No wind88%30.01 "Hg5 mi
9:00 PM68 °FPartly cloudy.No wind88%30.01 "Hg4 mi
8:00 PM68 °FPartly cloudy.No wind88%29.98 "Hg4 mi
Weather by CustomWeather, © 2016

See weather overviewHow to use our weather pages